[[{"header":{"parameterUnit":"m.s-1","parameterCategory":1,"la1":30.2991,"la2":30.254,"lo1":-89.0895,"lo2":-89.0444,"dy":0.0017,"dx":0.0017,"nx":28,"ny":28,"refTime":"2023-08-09T03:00:00:Z","depth":0,"parameterNumber":2,"parameterNumberName":"U-component_of_WINDS"},"data":[0,0,0,0,0,0,0,0,0,0,0,0,0,0,0,0,0,0,0,0,0,0,0,0,0,0,0,0,0,0,0,0,0,0,0,0,0,0,0,0,0,0,0,0,0,0,0,0,0,0,0,0,0,0,0,0,0,0,4.7793,4.7794,0,4.7908,4.7909,4.7911,4.787,4.7867,4.7865,4.7862,4.7978,4.7983,4.7988,0,0,0,0,0,0,0,0,0,0,0,0,0,4.753,4.7535,4.7792,4.7794,4.7795,4.7908,4.7909,4.7911,4.787,4.7867,4.7864,4.7861,4.7976,4.7982,4.7989,0,0,0,0,0,0,0,0,0,0,0,0,0,4.7645,4.7537,4.7792,4.7789,4.7789,4.7908,4.791,4.7911,4.7871,4.7867,4.7863,4.786,4.7974,4.7982,4.799,4.8118,0,0,4.8015,4.8018,0,0,0,0,0,0,0,0,4.7638,4.7654,4.7788,4.7789,4.779,4.7871,4.7859,4.7981,4.7872,4.784,4.7862,4.7858,4.7945,4.7955,4.7985,4.8123,4.8128,4.8016,4.8021,4.8024,4.8026,0,0,0,0,0,0,0,4.7631,4.7649,4.7838,4.779,4.7791,4.7779,4.7791,4.7882,4.7913,4.7842,4.784,4.7854,4.7945,4.7978,4.7988,4.813,4.8015,4.8023,4.8028,4.8031,4.8372,4.8376,0,0,0,0,0,0,4.7623,4.7643,4.7834,4.7842,4.7703,4.7787,4.7801,4.7849,4.7911,4.7917,4.7857,4.7852,4.7965,4.7978,4.7992,4.8141,4.8024,4.8032,4.8037,4.8368,4.8373,4.8377,0,0,0,0,0,0,4.7617,4.764,4.783,4.7742,4.7765,4.7796,4.785,4.7853,4.7885,4.7923,4.7927,4.7885,4.7963,4.798,4.8085,4.8144,4.8035,4.8043,4.8363,4.8369,4.8375,4.8443,0,0,0,0,0,0,4.761,4.7638,4.7689,4.7743,4.777,4.7923,4.7854,4.7858,4.79,4.7894,4.795,4.7956,4.7961,4.8073,4.8094,4.8154,4.8049,4.8358,4.8366,4.8373,4.8436,4.8451,4.8464,0,0,0,0,0,4.7601,4.7704,4.7692,4.7715,4.7834,4.7927,4.7942,4.7947,4.7905,4.7954,4.7978,4.7954,4.8136,4.8085,4.8107,4.817,4.8354,4.8363,4.8372,4.8429,4.8448,4.8463,0,0,0,0,0,0,4.7656,4.7711,4.7698,4.7823,4.787,4.792,4.7983,4.7967,4.8027,4.8019,4.8021,4.8034,4.8142,4.8167,4.8109,4.8294,4.8238,4.8252,4.8274,4.8292,4.8305,4.8295,4.8056,0,0,0,0,0,4.7683,4.7756,4.7799,4.7905,4.7929,4.7952,4.7993,4.7992,4.8042,4.8061,4.8093,4.814,4.8207,4.8251,4.8316,4.844,4.8449,4.8494,4.8508,4.852,4.8531,4.8593,4.8612,4.8408,4.8408,4.8407,0,0,4.7739,4.7778,4.7824,4.7917,4.7954,4.8026,4.7969,4.805,4.8103,4.8073,4.8173,4.8198,4.8251,4.8365,4.8417,4.8389,4.859,4.8532,4.854,4.8545,4.8605,4.8624,4.8641,4.8414,4.8413,4.8412,0,0,4.7876,4.7916,4.8005,4.8043,4.8099,4.8113,4.8134,4.8186,4.8201,4.8302,4.828,4.8342,4.8459,4.8496,4.853,4.8678,4.8657,4.87,4.8772,4.8833,4.8849,4.8863,4.8911,4.8929,4.8711,4.8711,4.8712,0,4.7938,4.8048,4.8053,4.8134,4.8173,4.815,4.8239,4.8275,4.8349,4.8376,4.8345,4.8488,4.8523,4.8642,4.8678,4.8708,4.8729,4.8692,4.8846,4.886,4.8874,4.8919,4.8938,4.8716,4.8715,4.8715,4.8714,0,4.8118,4.8195,4.826,4.8331,4.8379,4.8463,4.8478,4.8525,4.852,4.8536,4.8636,4.8677,4.8746,4.8776,4.8772,4.8894,4.8874,4.8845,4.8788,4.8897,4.894,4.8958,4.8722,4.8721,4.8719,4.8718,0,0,4.8294,4.8365,4.8388,4.8418,4.8478,4.8536,4.8618,4.8686,4.8724,4.8776,4.8841,4.894,4.8911,4.895,4.895,4.9004,4.9112,4.8967,4.8969,4.8989,4.9243,4.9261,4.9282,4.91,4.9103,4.9106,4.9237,0,4.8432,4.8577,4.8582,4.8712,4.878,4.8758,4.8829,4.8871,4.8888,4.8946,4.8965,4.9032,4.8993,4.9015,4.9068,4.9088,4.9163,4.9079,4.9157,4.916,4.9141,4.9305,4.9326,4.9448,4.9254,4.9257,4.9259,0,4.8614,4.8669,4.8807,4.8852,4.8881,4.8944,4.9004,4.9062,4.9108,4.9117,4.9158,4.915,4.923,4.9172,4.928,4.9223,4.9256,4.927,4.9275,4.9279,4.9214,4.931,4.9487,4.9503,4.9287,4.9284,4.9282,0,4.8721,4.8832,4.8926,4.8954,4.9011,4.9055,4.908,4.9123,4.9162,4.9215,4.9239,4.9301,4.9334,4.9381,4.9387,4.9346,4.9494,4.9438,4.95,4.9499,4.9529,4.9527,4.971,4.9558,4.9557,4.9557,4.9557,0,4.8873,4.8957,4.8975,4.9033,4.9124,4.9129,4.9219,4.9241,4.9278,4.9338,4.9324,4.938,4.9387,4.9444,4.945,4.9536,4.9552,4.9558,4.9558,4.9557,4.9556,4.9575,4.9565,4.9562,4.9561,4.956,4.9559,0,4.9008,4.9024,4.9125,4.917,4.9183,4.9248,4.9285,4.9339,4.9354,4.943,4.9447,4.947,4.9536,4.9548,4.9627,4.9631,4.9731,4.9725,4.9715,4.9713,4.9772,4.9764,4.9971,4.9996,4.9832,4.9833,4.9835,0,4.9102,4.9165,4.9216,4.9255,4.9283,4.9346,4.9385,4.9392,4.9433,4.9488,4.9534,4.9599,4.9651,4.9757,4.9779,4.9838,4.9829,4.9898,4.9838,4.9834,4.9825,4.9819,4.9823,4.9908,4.991,4.9911,4.9913,0,4.9265,4.9269,4.9327,4.9386,4.9434,4.9481,4.9526,4.9558,4.957,4.9616,4.9683,4.9723,4.9802,4.9865,4.9923,4.9946,4.993,4.9932,4.9948,4.9945,4.9935,4.9937,4.9742,4.9926,4.9925,4.9924,4.9923,4.9922,4.9378,4.9432,4.9475,4.9539,4.9573,4.9614,4.9665,4.9686,4.9743,4.9807,4.9807,4.9879,4.992,4.9996,5.0024,5.0078,5.0056,5.0082,5.0087,5.0092,5.0095,4.993,5.009,5.0089,5.0089,5.0089,5.0088,0,4.9536,4.9562,4.9621,4.9683,4.9732,4.9715,4.9762,4.9804,4.9868,4.9908,4.9958,5.0033,5.0093,5.012,5.0178,5.0216,5.021,5.0231,5.0226,5.023,5.0114,5.0092,5.0235,5.0235,5.0235,5.0234,5.0234,5.0234,4.9624,4.9711,4.972,4.9823,4.9849,4.9919,4.9947,4.9984,5.0015,5.01,5.0149,5.0167,5.02,5.026,5.0313,5.0319,5.0339,5.0362,5.0364,5.0254,5.0239,5.0225,5.0204,5.0368,5.0368,5.0476,5.0477,5.0477]},{"header":{"parameterUnit":"m.s-1","parameterCategory":1,"la1":30.2991,"la2":30.254,"lo1":-89.0895,"lo2":-89.0444,"dy":0.0017,"dx":0.0017,"nx":28,"ny":28,"refTime":"2023-08-09T03:00:00:Z","depth":0,"parameterNumber":3,"parameterNumberName":"V-component_of_WINDS"},"data":[0,0,0,0,0,0,0,0,0,0,0,0,0,0,0,0,0,0,0,0,0,0,0,0,0,0,0,0,0,0,0,0,0,0,0,0,0,0,0,0,0,0,0,0,0,0,0,0,0,0,0,0,0,0,0,0,0,0,2.9892,2.9892,0,2.997,2.9971,2.9971,2.9927,2.9925,2.9923,2.9921,2.9998,3.0002,3.0006,0,0,0,0,0,0,0,0,0,0,0,0,0,2.97,2.9704,2.9891,2.9892,2.9893,2.997,2.9971,2.9972,2.9928,2.9925,2.9922,2.992,2.9997,3.0002,3.0007,0,0,0,0,0,0,0,0,0,0,0,0,0,2.9781,2.9705,2.9891,2.9881,2.9881,2.9969,2.9971,2.9972,2.9928,2.9925,2.9922,2.9919,2.9995,3.0001,3.0007,3.011,0,0,3.0026,3.0029,0,0,0,0,0,0,0,0,2.9777,2.9788,2.9881,2.9882,2.9882,2.9936,2.9931,3.0018,2.9929,2.991,2.9921,2.9917,2.998,2.9987,3.0009,3.0113,3.0117,3.0026,3.003,3.0033,3.0034,0,0,0,0,0,0,0,2.9771,2.9785,2.9922,2.9883,2.9883,2.9871,2.9879,2.9948,2.9962,2.9912,2.9909,2.9919,2.9979,3.0003,3.001,3.0118,3.0026,3.0032,3.0035,3.0038,3.0309,3.0312,0,0,0,0,0,0,2.9767,2.978,2.992,2.9925,2.982,2.9877,2.9886,2.9921,2.9961,2.9964,2.9921,2.9916,2.9994,3.0003,3.0013,3.0134,3.0033,3.0038,3.0042,3.0305,3.0309,3.0313,0,0,0,0,0,0,2.9763,2.978,2.9917,2.9852,2.9868,2.9884,2.9924,2.9925,2.9948,2.9969,2.9971,2.9943,2.9992,3.0004,3.0086,3.0137,3.0041,3.0047,3.0301,3.0306,3.0311,3.038,0,0,0,0,0,0,2.9757,2.9778,2.9819,2.9853,2.9872,2.999,2.9927,2.9929,2.9959,2.9954,2.999,2.9992,2.999,3.0077,3.0092,3.0143,3.0051,3.0296,3.0303,3.031,3.0373,3.0387,3.0398,0,0,0,0,0,2.9751,2.9835,2.9821,2.9838,2.9923,2.9993,3.0004,3.0,2.9964,3.0004,3.0016,2.9991,3.0128,3.0086,3.0102,3.0156,3.0293,3.0301,3.0309,3.0367,3.0384,3.0398,0,0,0,0,0,0,2.9806,2.9839,2.9824,2.9922,2.9955,2.9986,3.0036,3.0018,3.0062,3.0055,3.0047,3.0056,3.0141,3.0156,3.0108,3.0256,3.0205,3.0216,3.0243,3.0259,3.0272,3.0267,3.0057,0,0,0,0,0,2.9829,2.9885,2.991,2.9994,3.0011,3.0021,3.0051,3.0046,3.0079,3.0093,3.0111,3.0144,3.0194,3.0228,3.0275,3.0374,3.0381,3.0419,3.0432,3.0443,3.0453,3.0505,3.0522,3.0339,3.0339,3.0339,0,0,2.9878,2.9903,2.9939,3.0006,3.0031,3.0087,3.0033,3.0095,3.0136,3.0102,3.018,3.0195,3.0231,3.0321,3.0362,3.0337,3.0504,3.0453,3.0461,3.0465,3.0515,3.0532,3.0548,3.0345,3.0344,3.0343,0,0,2.9996,3.0022,3.0093,3.0119,3.0158,3.0163,3.0181,3.0214,3.0222,3.0301,3.0276,3.0324,3.0411,3.0437,3.0462,3.0587,3.0566,3.0603,3.0669,3.0721,3.0735,3.0748,3.0792,3.0808,3.0613,3.0613,3.0613,0,3.0052,3.0138,3.0132,3.0196,3.0226,3.0197,3.0269,3.0294,3.0346,3.0366,3.0337,3.0445,3.0467,3.0563,3.0593,3.0614,3.0633,3.0599,3.0733,3.0746,3.0758,3.08,3.0817,3.0617,3.0617,3.0616,3.0616,0,3.0204,3.0263,3.0316,3.0367,3.0403,3.047,3.0474,3.051,3.05,3.0508,3.0588,3.0613,3.0664,3.0686,3.0678,3.0781,3.0764,3.0734,3.0682,3.078,3.0819,3.0835,3.0623,3.0622,3.0621,3.062,0,0,3.036,3.0407,3.0426,3.0449,3.0488,3.0533,3.0598,3.0649,3.068,3.0715,3.0769,3.0843,3.0815,3.0843,3.0837,3.0882,3.0979,3.0847,3.0847,3.087,3.1092,3.1114,3.1133,3.0964,3.0967,3.097,3.1089,0,3.0481,3.0596,3.0593,3.07,3.0753,3.0726,3.0782,3.0812,3.082,3.0866,3.0875,3.0927,3.0887,3.0904,3.0947,3.0958,3.1023,3.0949,3.1013,3.1015,3.1005,3.1154,3.1178,3.1289,3.1104,3.1107,3.1109,0,3.0637,3.0679,3.0792,3.0822,3.0844,3.0895,3.0941,3.0985,3.1017,3.102,3.105,3.1036,3.1101,3.1047,3.1134,3.1084,3.1109,3.1118,3.1122,3.1129,3.1068,3.1163,3.1325,3.1341,3.1133,3.1131,3.1129,0,3.074,3.0824,3.0901,3.0921,3.0959,3.0995,3.1012,3.1041,3.1071,3.111,3.1129,3.1175,3.12,3.1235,3.1233,3.1194,3.1322,3.1268,3.1325,3.1325,3.1354,3.1352,3.1521,3.137,3.137,3.137,3.1369,0,3.0875,3.0945,3.0948,3.0996,3.1072,3.1066,3.1142,3.1155,3.118,3.1229,3.1208,3.1254,3.1248,3.1294,3.1293,3.1365,3.1376,3.1379,3.1378,3.1382,3.1381,3.1398,3.1391,3.1374,3.1373,3.1372,3.1371,0,3.1002,3.1008,3.1091,3.1119,3.1127,3.1182,3.1206,3.125,3.1256,3.1318,3.1332,3.1342,3.1394,3.1396,3.1456,3.1454,3.1542,3.1532,3.1532,3.153,3.1587,3.1582,3.1774,3.1798,3.1631,3.1633,3.1634,0,3.1089,3.1142,3.1175,3.1207,3.1226,3.1277,3.1308,3.1303,3.1336,3.1375,3.1414,3.1465,3.1505,3.159,3.1601,3.1647,3.1638,3.1702,3.1644,3.1646,3.1638,3.1635,3.164,3.1713,3.1715,3.1716,3.1718,0,3.124,3.124,3.1286,3.1332,3.1369,3.1406,3.1439,3.1465,3.1464,3.1501,3.1555,3.1587,3.1648,3.1698,3.1741,3.1757,3.1737,3.1735,3.1751,3.1755,3.1753,3.1754,3.1563,3.1731,3.173,3.1729,3.1728,3.1728,3.135,3.1395,3.1426,3.1477,3.1501,3.1533,3.1576,3.1587,3.1632,3.1682,3.1676,3.1735,3.1764,3.182,3.184,3.1885,3.1863,3.1885,3.1891,3.1897,3.1903,3.1745,3.1893,3.1892,3.1892,3.1892,3.1892,0,3.15,3.1518,3.1565,3.1613,3.1652,3.163,3.1666,3.17,3.1753,3.1782,3.1822,3.1882,3.193,3.1945,3.1991,3.2024,3.2016,3.2037,3.2034,3.2038,3.1921,3.1902,3.2042,3.2042,3.2042,3.2042,3.2042,3.2042,3.1583,3.1659,3.1661,3.1748,3.1765,3.1824,3.1846,3.1874,3.1896,3.1966,3.2006,3.2015,3.2038,3.2085,3.2127,3.213,3.2148,3.2172,3.2171,3.2061,3.2046,3.2032,3.2015,3.2176,3.2176,3.2284,3.2285,3.2286]}]]